Weather History for MMMZ - October, 2012

Change the Weather History Date:

Monday, October 1, 2012

  Actual Average Record
Temperature  
Mean Temperature 81 °F -  
Max Temperature 87 °F 86 °F 93 °F (1997)
Min Temperature 75 °F 72 °F 33 °F (1996)
Cooling Degree Days 16    
Growing Degree Days 31 (Base 50)    
Moisture  
Dew Point 75 °F    
Average Humidity 83    
Maximum Humidity 94    
Minimum Humidity 70    
Precipitation  
Precipitation 0.00 in - - ()
Sea Level Pressure  
Sea Level Pressure 29.75 in    
Wind  
Wind Speed 6 mph ()    
Max Wind Speed 10 mph    
Max Gust Speed -    
Visibility 10.7 miles    
Events      
Averages and records for this station are not official NWS values.
T = Trace of Precipitation, MM = Missing Value Source: Averaged Metar Reports

Daily Weather History Graph

Daily Weather History Graph

Search for Another Location

Airport or City:

Trip Planner

Search our weather history database for the weather conditions in past years. The results will help you decide how hot, cold, wet, or windy it might be!

Date:

Astronomy

Oct. 01, 2012 Rise Set
Actual Time 6:56 AM MDT 6:51 PM MDT
Civil Twilight 6:34 AM MDT 7:14 PM MDT
Nautical Twilight 6:08 AM MDT 7:40 PM MDT
Astronomical Twilight 5:42 AM MDT 8:06 PM MDT
Moon 7:49 PM MDT (10/1) 8:12 AM MDT (10/1)
Length of Visible Light 12h 39m
Length of Day
11h 54m
Full, 97% of the Moon is Illuminated
Oct 1
Full
Oct 8
Last Quarter
Oct 15
New
Oct 21
First Quarter
Oct 29
Full

Hourly Weather History & Observations

Time (MDT) Temp. Heat Index Dew Point Humidity Pressure Visibility Wind Dir Wind Speed Gust Speed Precip Events Conditions
12:50 AM 77.0 °F - 75.2 °F 94% 29.77 in 10.0 mi NNE 6.9 mph - N/A   Scattered Clouds
1:42 AM 77.0 °F - 75.2 °F 94% 29.76 in 10.0 mi NNW 6.9 mph - N/A   Mostly Cloudy
2:43 AM 77.0 °F - 75.2 °F 94% 29.74 in 10.0 mi NW 5.8 mph - N/A   Mostly Cloudy
3:41 AM 77.0 °F - 73.4 °F 89% 29.75 in 10.0 mi NNW 6.9 mph - N/A   Mostly Cloudy
4:41 AM 75.2 °F - 73.4 °F 94% 29.75 in 10.0 mi NNW 6.9 mph - N/A   Scattered Clouds
5:51 AM 75.2 °F - 73.4 °F 94% 29.77 in 10.0 mi North 5.8 mph - N/A   Scattered Clouds
6:42 AM 75.2 °F - 73.4 °F 94% 29.76 in 10.0 mi NNE 4.6 mph - N/A   Scattered Clouds
7:45 AM 75.2 °F - 73.4 °F 94% 29.77 in 10.0 mi Calm Calm - N/A   Partly Cloudy
8:41 AM 78.8 °F - 75.2 °F 89% 29.77 in 10.0 mi North 5.8 mph - N/A   Partly Cloudy
9:44 AM 80.6 °F 86.2 °F 75.2 °F 84% 29.79 in 10.0 mi North 5.8 mph - N/A   Scattered Clouds
10:42 AM 84.2 °F 92.3 °F 75.2 °F 74% 29.78 in 12.0 mi East 5.8 mph - N/A   Scattered Clouds
11:40 AM 86.0 °F 95.1 °F 75.2 °F 70% 29.77 in 12.0 mi SSE 5.8 mph - N/A   Scattered Clouds
12:44 PM 87.8 °F 99.7 °F 77.0 °F 70% 29.95 in 12.0 mi WSW 9.2 mph - N/A   Scattered Clouds
1:40 PM 87.8 °F 99.7 °F 77.0 °F 70% 29.72 in 14.0 mi SW 9.2 mph - N/A   Partly Cloudy
2:40 PM 87.8 °F 99.7 °F 77.0 °F 70% 29.71 in 12.0 mi WSW 9.2 mph - N/A   Scattered Clouds
3:42 PM 87.8 °F 99.7 °F 77.0 °F 70% 29.69 in 12.0 mi WSW 10.4 mph - N/A   Partly Cloudy
4:40 PM 87.8 °F 99.7 °F 77.0 °F 70% 29.68 in 12.0 mi WSW 10.4 mph - N/A   Clear
5:44 PM 86.0 °F 95.1 °F 75.2 °F 70% 29.69 in 12.0 mi West 9.2 mph - N/A   Clear
6:40 PM 82.4 °F 89.5 °F 75.2 °F 79% 29.70 in 12.0 mi WNW 8.1 mph - N/A   Partly Cloudy
7:42 PM 80.6 °F 86.2 °F 75.2 °F 84% 29.71 in 10.0 mi West 9.2 mph - N/A   Clear
8:43 PM 78.8 °F - 75.2 °F 89% 29.74 in 10.0 mi NNW 5.8 mph - N/A   Partly Cloudy
9:42 PM 78.8 °F - 75.2 °F 89% 29.77 in 10.0 mi West 5.8 mph - N/A   Partly Cloudy
10:41 PM 78.8 °F - 75.2 °F 89% 29.77 in 10.0 mi West 6.9 mph - N/A   Partly Cloudy
11:46 PM 78.8 °F - 75.2 °F 89% 29.80 in 8.0 mi NW 6.9 mph - N/A   Partly Cloudy